This is the latest recevied weather packets stored in our database for station/object VE8SKI. If no packets are shown the sender has not sent any weather packets the latest 10 day(s).
| Time | Temp. | Humidity | Pressure | Rain* | Wind** | Luminosity | Snow |
|---|---|---|---|---|---|---|---|
| 1777712491 | -0.56° C | 93% | 1018.1 hPa | 0 mm | 1.34 m/s, 34° | - | - |
| 1777712191 | -0.56° C | 93% | 1018.1 hPa | 0 mm | 0.89 m/s, 39° | - | - |
| 1777711889 | -0.56° C | 92% | 1018.2 hPa | 0 mm | 1.34 m/s, 15° | - | - |
| 1777711589 | -0.56° C | 93% | 1018.2 hPa | 0 mm | 2.24 m/s, 32° | - | - |
| 1777711289 | -0.56° C | 93% | 1018.2 hPa | 0 mm | 1.79 m/s, 46° | - | - |
| 1777710989 | -0.56° C | 92% | 1018.2 hPa | 0 mm | 1.34 m/s, 20° | - | - |
| 1777710689 | 0° C | 92% | 1018.2 hPa | 0 mm | 1.34 m/s, 28° | - | - |
| 1777710390 | 0° C | 91% | 1018.2 hPa | 0 mm | 1.34 m/s, 7° | - | - |
| 1777710097 | 0° C | 90% | 1018.3 hPa | 0 mm | 1.34 m/s, 8° | - | - |
| 1777709787 | 0.56° C | 90% | 1018.4 hPa | 0 mm | 1.34 m/s, 30° | - | - |
| 1777709488 | 0° C | 91% | 1018.3 hPa | 0 mm | 1.34 m/s, 38° | - | - |
| 1777709188 | 0° C | 91% | 1018.3 hPa | 0 mm | 1.34 m/s, 23° | - | - |
| 1777708891 | 0° C | 92% | 1018.3 hPa | 0 mm | 1.79 m/s, 34° | - | - |
| 1777708588 | 0° C | 93% | 1018.3 hPa | 0 mm | 0.89 m/s, 21° | - | - |
| 1777708286 | 0° C | 93% | 1018.3 hPa | 0 mm | 0.89 m/s, 21° | - | - |
| 1777707986 | 0° C | 93% | 1018.3 hPa | 0 mm | 1.34 m/s, 21° | - | - |
| 1777707686 | 0° C | 93% | 1018.4 hPa | 0 mm | 1.34 m/s, 8° | - | - |
| 1777707386 | 0° C | 94% | 1018.3 hPa | 0 mm | 1.34 m/s, 20° | - | - |
| 1777707087 | 0° C | 93% | 1018.3 hPa | 0 mm | 1.34 m/s, 15° | - | - |
| 1777706787 | 0° C | 94% | 1018.3 hPa | 0 mm | 0.89 m/s, 25° | - | - |
| 1777706484 | 0° C | 93% | 1018.3 hPa | 0 mm | 0.89 m/s, 21° | - | - |
| 1777706185 | 0° C | 94% | 1018.3 hPa | 0 mm | 0.89 m/s, 10° | - | - |
| 1777705885 | 0° C | 93% | 1018.2 hPa | 0 mm | 1.34 m/s, 305° | - | - |
| 1777705585 | 0° C | 92% | 1018.1 hPa | 0 mm | 1.34 m/s, 8° | - | - |
| 1777705285 | 0° C | 91% | 1018.1 hPa | 0 mm | 0.89 m/s, 11° | - | - |
* Rain latest hour (hover to see other rain measurements)
** Current wind speed in m/s (hover to see current wind gust speed)